Time,TemperatureF,DewpointF,PressureIn,WindDirection,WindDirectionDegrees,WindSpeedMPH,WindSpeedGustMPH,Humidity,HourlyPrecipIn,Conditions,Clouds,dailyrainin,SoftwareType,DateUTC
2013-03-31 00:00:00,47.6,43.9,30.09,NW,322,0.0,1.0,87,0.01,,OVC055,0.01,VWS V14.01,2013-03-31 04:00:00,
2013-03-31 00:05:00,47.4,44.3,30.09,NW,322,0.0,1.0,89,0.01,,OVC055,0.01,VWS V14.01,2013-03-31 04:05:00,
2013-03-31 00:10:00,47.3,44.8,30.09,NW,322,0.0,1.0,91,0.01,,OVC055,0.01,VWS V14.01,2013-03-31 04:10:00,
2013-03-31 00:15:00,47.2,45.3,30.09,NW,322,0.0,1.0,93,0.01,,OVC055,0.01,VWS V14.01,2013-03-31 04:15:00,
2013-03-31 00:20:00,47.1,45.5,30.08,NW,322,0.0,1.0,94,0.02,,OVC055,0.02,VWS V14.01,2013-03-31 04:20:00,
2013-03-31 00:25:00,47.0,45.4,30.08,NW,322,0.0,1.0,94,0.02,,OVC055,0.02,VWS V14.01,2013-03-31 04:25:00,
2013-03-31 00:30:00,46.9,45.3,30.08,NW,322,0.0,0.0,94,0.03,,OVC055,0.03,VWS V14.01,2013-03-31 04:30:00,
2013-03-31 00:35:00,46.7,45.3,30.08,NW,322,0.0,0.0,95,0.03,,OVC055,0.03,VWS V14.01,2013-03-31 04:35:00,
2013-03-31 00:40:00,46.6,45.2,30.08,NW,322,0.0,0.0,95,0.04,,OVC055,0.04,VWS V14.01,2013-03-31 04:40:00,
2013-03-31 00:45:00,46.6,45.5,30.08,NW,322,0.0,0.0,96,0.04,,OVC055,0.04,VWS V14.01,2013-03-31 04:45:00,
2013-03-31 00:50:00,46.6,45.5,30.07,NW,322,0.0,0.0,96,0.05,,OVC055,0.05,VWS V14.01,2013-03-31 04:50:00,
2013-03-31 00:55:00,46.5,45.4,30.07,NW,322,0.0,0.0,96,0.06,,OVC055,0.06,VWS V14.01,2013-03-31 04:55:00,
2013-03-31 01:00:00,46.5,45.4,30.07,NW,322,0.0,0.0,96,0.07,,OVC055,0.07,VWS V14.01,2013-03-31 05:00:00,
2013-03-31 01:05:00,46.5,45.4,30.07,NW,322,0.0,0.0,96,0.07,,OVC055,0.07,VWS V14.01,2013-03-31 05:05:00,
2013-03-31 01:10:00,46.5,45.7,30.06,NW,322,0.0,0.0,97,0.08,,OVC055,0.08,VWS V14.01,2013-03-31 05:10:00,
2013-03-31 01:15:00,46.4,45.6,30.06,NW,322,0.0,0.0,97,0.09,,OVC055,0.09,VWS V14.01,2013-03-31 05:15:00,
2013-03-31 01:20:00,46.3,45.5,30.06,NW,322,0.0,0.0,97,0.09,,OVC055,0.09,VWS V14.01,2013-03-31 05:20:00,
2013-03-31 01:25:00,46.3,45.5,30.05,NW,322,0.0,0.0,97,0.10,,OVC055,0.10,VWS V14.01,2013-03-31 05:25:00,
2013-03-31 01:30:00,46.2,45.4,30.05,NW,322,0.0,0.0,97,0.09,,OVC055,0.11,VWS V14.01,2013-03-31 05:30:00,
2013-03-31 01:35:00,46.2,45.4,30.05,NW,322,0.0,0.0,97,0.09,,OVC055,0.11,VWS V14.01,2013-03-31 05:35:00,
2013-03-31 01:40:00,46.2,45.4,30.05,NW,322,0.0,0.0,97,0.10,,OVC055,0.12,VWS V14.01,2013-03-31 05:40:00,
2013-03-31 01:45:00,46.1,45.6,30.05,NW,322,0.0,0.0,98,0.10,,OVC055,0.12,VWS V14.01,2013-03-31 05:45:00,
2013-03-31 01:50:00,46.1,45.3,30.04,NW,322,0.0,0.0,97,0.11,,OVC055,0.13,VWS V14.01,2013-03-31 05:50:00,
2013-03-31 01:55:00,46.1,45.6,30.04,NW,322,0.0,0.0,98,0.12,,OVC055,0.14,VWS V14.01,2013-03-31 05:55:00,
2013-03-31 02:00:00,46.1,45.6,30.03,NW,322,0.0,0.0,98,0.08,,OVC055,0.15,VWS V14.01,2013-03-31 06:00:00,
2013-03-31 02:05:00,46.1,45.6,30.03,NW,322,0.0,1.0,98,0.10,,OVC055,0.17,VWS V14.01,2013-03-31 06:05:00,
2013-03-31 02:10:00,46.1,45.6,30.03,North,355,2.0,3.0,98,0.12,,OVC055,0.19,VWS V14.01,2013-03-31 06:10:00,
2013-03-31 02:15:00,46.1,45.6,30.02,North,355,0.0,3.0,98,0.12,,OVC055,0.19,VWS V14.01,2013-03-31 06:15:00,
2013-03-31 02:20:00,46.1,45.6,30.03,North,355,0.0,3.0,98,0.12,,OVC055,0.19,VWS V14.01,2013-03-31 06:20:00,
2013-03-31 02:25:00,46.1,45.6,30.02,North,355,1.0,3.0,98,0.13,,OVC055,0.20,VWS V14.01,2013-03-31 06:25:00,
2013-03-31 02:30:00,46.1,45.6,30.01,North,355,0.0,1.0,98,0.11,,OVC055,0.21,VWS V14.01,2013-03-31 06:30:00,
2013-03-31 02:35:00,46.2,45.9,30.01,North,355,0.0,1.0,99,0.12,,OVC055,0.22,VWS V14.01,2013-03-31 06:35:00,
2013-03-31 02:40:00,46.1,45.8,30.00,North,355,0.0,1.0,99,0.12,,OVC055,0.22,VWS V14.01,2013-03-31 06:40:00,
2013-03-31 02:45:00,46.1,45.6,30.00,North,355,0.0,1.0,98,0.12,,OVC055,0.22,VWS V14.01,2013-03-31 06:45:00,
2013-03-31 02:50:00,46.1,45.8,30.00,North,355,0.0,1.0,99,0.12,,OVC055,0.22,VWS V14.01,2013-03-31 06:50:00,
2013-03-31 02:55:00,46.0,45.7,29.99,North,355,0.0,1.0,99,0.13,,OVC055,0.23,VWS V14.01,2013-03-31 06:55:00,
2013-03-31 03:00:00,46.0,45.7,30.00,North,355,0.0,0.0,99,0.08,,OVC055,0.23,VWS V14.01,2013-03-31 07:00:00,
2013-03-31 03:05:00,46.1,45.8,29.99,North,355,0.0,0.0,99,0.08,,OVC055,0.23,VWS V14.01,2013-03-31 07:05:00,
2013-03-31 03:10:00,46.1,45.8,29.99,North,355,0.0,1.0,99,0.09,,OVC055,0.24,VWS V14.01,2013-03-31 07:10:00,
2013-03-31 03:15:00,46.1,45.8,29.98,North,355,0.0,1.0,99,0.10,,OVC055,0.25,VWS V14.01,2013-03-31 07:15:00,
2013-03-31 03:20:00,46.1,45.8,29.98,North,355,0.0,1.0,99,0.12,,OVC055,0.27,VWS V14.01,2013-03-31 07:20:00,
2013-03-31 03:25:00,46.1,45.8,29.98,North,355,0.0,1.0,99,0.13,,OVC055,0.28,VWS V14.01,2013-03-31 07:25:00,
2013-03-31 03:30:00,46.1,45.8,29.98,North,355,0.0,0.0,99,0.08,,OVC055,0.29,VWS V14.01,2013-03-31 07:30:00,
2013-03-31 03:35:00,46.1,45.8,29.98,North,355,0.0,1.0,99,0.08,,OVC055,0.29,VWS V14.01,2013-03-31 07:35:00,
2013-03-31 03:40:00,46.1,45.8,29.98,North,355,0.0,1.0,99,0.09,,OVC055,0.30,VWS V14.01,2013-03-31 07:40:00,
2013-03-31 03:45:00,46.2,45.9,29.98,North,355,0.0,1.0,99,0.10,,OVC055,0.31,VWS V14.01,2013-03-31 07:45:00,
2013-03-31 03:50:00,46.2,45.9,29.97,North,355,0.0,1.0,99,0.10,,OVC055,0.31,VWS V14.01,2013-03-31 07:50:00,
2013-03-31 03:55:00,46.2,45.9,29.97,North,355,0.0,1.0,99,0.11,,OVC055,0.32,VWS V14.01,2013-03-31 07:55:00,
2013-03-31 04:00:00,46.3,46.0,29.97,North,355,0.0,0.0,99,0.09,,OVC055,0.32,VWS V14.01,2013-03-31 08:00:00,
2013-03-31 04:05:00,46.3,46.0,29.97,North,355,0.0,0.0,99,0.10,,OVC055,0.33,VWS V14.01,2013-03-31 08:05:00,
2013-03-31 04:10:00,46.3,46.0,29.97,North,355,0.0,0.0,99,0.11,,OVC055,0.34,VWS V14.01,2013-03-31 08:10:00,
2013-03-31 04:15:00,46.3,46.0,29.96,North,355,0.0,0.0,99,0.11,,OVC055,0.34,VWS V14.01,2013-03-31 08:15:00,
2013-03-31 04:20:00,46.3,46.0,29.96,North,355,0.0,0.0,99,0.12,,OVC055,0.35,VWS V14.01,2013-03-31 08:20:00,
2013-03-31 04:25:00,46.3,46.0,29.96,North,355,0.0,0.0,99,0.12,,OVC055,0.35,VWS V14.01,2013-03-31 08:25:00,
2013-03-31 04:30:00,46.3,46.0,29.95,North,355,0.0,0.0,99,0.06,,OVC055,0.35,VWS V14.01,2013-03-31 08:30:00,
2013-03-31 04:35:00,46.3,46.0,29.95,North,355,0.0,0.0,99,0.06,,OVC055,0.35,VWS V14.01,2013-03-31 08:35:00,
2013-03-31 04:40:00,46.3,46.0,29.95,North,355,0.0,0.0,99,0.06,,OVC055,0.35,VWS V14.01,2013-03-31 08:40:00,
2013-03-31 04:45:00,46.3,46.0,29.95,North,355,0.0,0.0,99,0.06,,OVC055,0.35,VWS V14.01,2013-03-31 08:45:00,
2013-03-31 04:50:00,46.4,46.1,29.95,North,355,0.0,0.0,99,0.06,,OVC055,0.35,VWS V14.01,2013-03-31 08:50:00,
2013-03-31 04:55:00,46.4,46.1,29.95,North,355,0.0,0.0,99,0.07,,OVC055,0.36,VWS V14.01,2013-03-31 08:55:00,
2013-03-31 05:00:00,46.4,46.1,29.95,North,355,0.0,0.0,99,0.04,,OVC055,0.36,VWS V14.01,2013-03-31 09:00:00,
2013-03-31 05:05:00,46.5,46.2,29.95,North,355,0.0,0.0,99,0.04,,OVC055,0.36,VWS V14.01,2013-03-31 09:05:00,
2013-03-31 05:10:00,46.5,46.2,29.94,North,355,0.0,0.0,99,0.04,,OVC055,0.36,VWS V14.01,2013-03-31 09:10:00,
2013-03-31 05:15:00,46.4,46.1,29.94,North,355,0.0,1.0,99,0.05,,OVC055,0.37,VWS V14.01,2013-03-31 09:15:00,
2013-03-31 05:20:00,46.4,46.1,29.94,North,355,0.0,1.0,99,0.05,,OVC055,0.37,VWS V14.01,2013-03-31 09:20:00,
2013-03-31 05:25:00,46.4,46.1,29.94,North,355,0.0,1.0,99,0.06,,OVC055,0.38,VWS V14.01,2013-03-31 09:25:00,
2013-03-31 05:30:00,46.5,46.2,29.94,North,355,0.0,0.0,99,0.03,,OVC055,0.38,VWS V14.01,2013-03-31 09:30:00,
2013-03-31 05:35:00,46.5,46.2,29.94,North,355,0.0,0.0,99,0.04,,OVC055,0.39,VWS V14.01,2013-03-31 09:35:00,
2013-03-31 05:40:00,46.5,46.2,29.94,North,355,0.0,0.0,99,0.04,,OVC055,0.39,VWS V14.01,2013-03-31 09:40:00,
2013-03-31 05:45:00,46.5,46.2,29.94,North,355,0.0,0.0,99,0.04,,OVC055,0.39,VWS V14.01,2013-03-31 09:45:00,
2013-03-31 05:50:00,46.5,46.5,29.93,North,355,0.0,0.0,100,0.04,,OVC055,0.39,VWS V14.01,2013-03-31 09:50:00,
2013-03-31 05:55:00,46.6,46.6,29.93,North,355,0.0,0.0,100,0.04,,OVC055,0.39,VWS V14.01,2013-03-31 09:55:00,
2013-03-31 06:00:00,46.6,46.6,29.93,North,355,0.0,0.0,100,0.03,,OVC055,0.39,VWS V14.01,2013-03-31 10:00:00,
2013-03-31 06:05:00,46.6,46.6,29.93,North,355,0.0,0.0,100,0.03,,OVC055,0.39,VWS V14.01,2013-03-31 10:05:00,
2013-03-31 06:10:00,46.7,46.7,29.93,North,355,0.0,0.0,100,0.03,,OVC055,0.39,VWS V14.01,2013-03-31 10:10:00,
2013-03-31 06:15:00,46.7,46.7,29.93,North,355,0.0,0.0,100,0.04,,OVC055,0.40,VWS V14.01,2013-03-31 10:15:00,
2013-03-31 06:20:00,46.7,46.7,29.93,North,355,0.0,0.0,100,0.04,,OVC055,0.40,VWS V14.01,2013-03-31 10:20:00,
2013-03-31 06:24:00,46.7,46.7,29.92,North,355,0.0,0.0,100,0.04,,OVC055,0.40,VWS V14.01,2013-03-31 10:24:00,
2013-03-31 06:29:00,46.7,46.7,29.92,North,355,0.0,0.0,100,0.02,,OVC055,0.40,VWS V14.01,2013-03-31 10:29:00,
2013-03-31 06:30:00,46.7,46.7,29.92,North,355,0.0,0.0,100,0.04,,OVC055,0.40,VWS V14.01,2013-03-31 10:30:00,
2013-03-31 06:34:00,46.7,46.7,29.92,North,355,0.0,0.0,100,0.02,,OVC055,0.40,VWS V14.01,2013-03-31 10:34:00,
2013-03-31 06:39:00,46.8,46.8,29.92,North,355,0.0,1.0,100,0.02,,OVC055,0.40,VWS V14.01,2013-03-31 10:39:00,
2013-03-31 06:44:00,46.8,46.8,29.92,North,355,0.0,1.0,100,0.02,,OVC055,0.40,VWS V14.01,2013-03-31 10:44:00,
2013-03-31 06:49:00,46.9,46.9,29.92,North,355,0.0,1.0,100,0.02,,OVC055,0.40,VWS V14.01,2013-03-31 10:49:00,
2013-03-31 06:54:00,47.0,47.0,29.92,North,355,0.0,1.0,100,0.02,,OVC055,0.40,VWS V14.01,2013-03-31 10:54:00,
2013-03-31 06:59:00,47.1,47.1,29.92,North,355,0.0,0.0,100,0.01,,OVC055,0.40,VWS V14.01,2013-03-31 10:59:00,
2013-03-31 07:00:00,47.1,47.1,29.92,North,355,0.0,1.0,100,0.02,,OVC055,0.40,VWS V14.01,2013-03-31 11:00:00,
2013-03-31 07:04:00,47.4,47.4,29.92,North,355,0.0,1.0,100,0.01,,OVC055,0.40,VWS V14.01,2013-03-31 11:04:00,
2013-03-31 07:09:00,47.6,47.6,29.92,North,355,0.0,1.0,100,0.01,,OVC055,0.40,VWS V14.01,2013-03-31 11:09:00,
2013-03-31 07:14:00,47.8,47.8,29.92,North,355,0.0,1.0,100,0.01,,OVC055,0.40,VWS V14.01,2013-03-31 11:14:00,
2013-03-31 07:19:00,47.9,47.9,29.92,North,355,0.0,1.0,100,0.01,,OVC055,0.40,VWS V14.01,2013-03-31 11:19:00,
2013-03-31 07:24:00,48.0,48.0,29.92,North,355,0.0,1.0,100,0.01,,OVC055,0.40,VWS V14.01,2013-03-31 11:24:00,
2013-03-31 07:29:00,48.1,48.1,29.92,North,355,0.0,0.0,100,0.00,,OVC055,0.40,VWS V14.01,2013-03-31 11:29:00,
2013-03-31 07:30:00,48.1,48.1,29.92,North,355,0.0,1.0,100,0.01,,OVC055,0.40,VWS V14.01,2013-03-31 11:30:00,
2013-03-31 07:34:00,48.3,48.3,29.92,North,355,0.0,0.0,100,0.00,,OVC055,0.40,VWS V14.01,2013-03-31 11:34:00,
2013-03-31 07:39:00,48.5,48.5,29.92,North,355,0.0,0.0,100,0.00,,OVC055,0.40,VWS V14.01,2013-03-31 11:39:00,
2013-03-31 07:44:00,48.7,48.7,29.92,North,355,0.0,0.0,100,0.00,,OVC055,0.40,VWS V14.01,2013-03-31 11:44:00,
2013-03-31 07:49:00,48.8,48.8,29.92,North,355,0.0,0.0,100,0.00,,OVC055,0.40,VWS V14.01,2013-03-31 11:49:00,
2013-03-31 07:54:00,49.0,49.0,29.92,North,355,0.0,1.0,100,0.00,,OVC055,0.40,VWS V14.01,2013-03-31 11:54:00,
2013-03-31 07:59:00,49.1,49.1,29.92,North,355,0.0,0.0,100,0.00,,OVC055,0.40,VWS V14.01,2013-03-31 11:59:00,
2013-03-31 08:00:00,49.1,49.1,29.92,North,355,0.0,1.0,100,0.00,,OVC055,0.40,VWS V14.01,2013-03-31 12:00:00,
2013-03-31 08:04:00,49.3,49.3,29.91,North,355,0.0,1.0,100,0.00,,OVC055,0.40,VWS V14.01,2013-03-31 12:04:00,
2013-03-31 08:09:00,49.5,49.5,29.92,North,355,0.0,1.0,100,0.00,,OVC055,0.40,VWS V14.01,2013-03-31 12:09:00,
2013-03-31 08:14:00,49.7,49.7,29.91,North,355,0.0,1.0,100,0.00,,OVC055,0.40,VWS V14.01,2013-03-31 12:14:00,
2013-03-31 08:19:00,50.1,50.1,29.92,North,355,0.0,2.0,100,0.00,,OVC055,0.40,VWS V14.01,2013-03-31 12:19:00,
2013-03-31 08:24:00,50.4,50.4,29.92,North,355,1.0,2.0,100,0.00,,OVC055,0.40,VWS V14.01,2013-03-31 12:24:00,
2013-03-31 08:29:00,50.7,50.7,29.92,North,355,0.0,0.0,100,0.00,,OVC055,0.40,VWS V14.01,2013-03-31 12:29:00,
2013-03-31 08:30:00,50.7,50.7,29.92,North,355,0.0,3.0,100,0.00,,OVC055,0.40,VWS V14.01,2013-03-31 12:30:00,
2013-03-31 08:34:00,50.8,50.8,29.92,North,355,0.0,2.0,100,0.00,,OVC055,0.40,VWS V14.01,2013-03-31 12:34:00,
2013-03-31 08:39:00,51.0,51.0,29.92,North,355,0.0,2.0,100,0.00,,OVC055,0.40,VWS V14.01,2013-03-31 12:39:00,
2013-03-31 08:44:00,51.1,51.1,29.92,North,355,0.0,2.0,100,0.00,,OVC055,0.40,VWS V14.01,2013-03-31 12:44:00,
2013-03-31 08:49:00,51.2,51.2,29.92,NW,309,0.0,2.0,100,0.00,,OVC055,0.40,VWS V14.01,2013-03-31 12:49:00,
2013-03-31 08:54:00,51.2,51.2,29.91,NW,306,1.0,2.0,100,0.00,,OVC055,0.40,VWS V14.01,2013-03-31 12:54:00,
2013-03-31 08:59:00,51.2,51.2,29.92,WNW,303,1.0,1.0,100,0.00,,OVC055,0.40,VWS V14.01,2013-03-31 12:59:00,
2013-03-31 09:00:00,51.2,51.2,29.92,WNW,303,0.0,2.0,100,0.00,,OVC055,0.40,VWS V14.01,2013-03-31 13:00:00,
2013-03-31 09:04:00,51.3,51.3,29.92,WNW,303,0.0,2.0,100,0.00,,OVC055,0.40,VWS V14.01,2013-03-31 13:04:00,
2013-03-31 09:09:00,51.4,51.4,29.92,WNW,303,2.0,2.0,100,0.00,,OVC055,0.40,VWS V14.01,2013-03-31 13:09:00,
2013-03-31 09:14:00,51.5,51.5,29.91,WNW,303,0.0,2.0,100,0.00,,OVC055,0.40,VWS V14.01,2013-03-31 13:14:00,
2013-03-31 09:19:00,51.8,51.8,29.92,WNW,303,0.0,2.0,100,0.00,,OVC055,0.40,VWS V14.01,2013-03-31 13:19:00,
2013-03-31 09:24:00,52.0,52.0,29.93,North,355,0.0,5.0,100,0.00,,OVC055,0.40,VWS V14.01,2013-03-31 13:24:00,
2013-03-31 09:29:00,52.3,52.3,29.92,WNW,285,0.0,0.0,100,0.00,,OVC055,0.40,VWS V14.01,2013-03-31 13:29:00,
2013-03-31 09:30:00,52.3,52.3,29.92,WNW,285,0.0,5.0,100,0.00,,OVC055,0.40,VWS V14.01,2013-03-31 13:30:00,
2013-03-31 09:34:00,52.5,52.5,29.93,WNW,285,1.0,2.0,100,0.00,,OVC055,0.40,VWS V14.01,2013-03-31 13:34:00,
2013-03-31 09:39:00,52.8,52.5,29.93,West,265,0.0,3.0,99,0.00,,OVC055,0.40,VWS V14.01,2013-03-31 13:39:00,
2013-03-31 09:44:00,53.4,53.1,29.93,NW,307,1.0,3.0,99,0.00,,OVC055,0.40,VWS V14.01,2013-03-31 13:44:00,
2013-03-31 09:49:00,54.2,53.7,29.92,SE,134,3.0,4.0,98,0.00,,OVC055,0.40,VWS V14.01,2013-03-31 13:49:00,
2013-03-31 09:54:00,54.8,53.7,29.92,ESE,117,2.0,6.0,96,0.00,,OVC055,0.40,VWS V14.01,2013-03-31 13:54:00,
2013-03-31 09:59:00,55.4,54.3,29.92,SW,229,0.0,0.0,96,0.00,,OVC055,0.40,VWS V14.01,2013-03-31 13:59:00,
2013-03-31 10:00:00,55.4,54.3,29.92,SW,229,0.0,6.0,96,0.00,,OVC055,0.40,VWS V14.01,2013-03-31 14:00:00,
2013-03-31 10:04:00,56.4,54.7,29.92,SSW,207,1.0,5.0,94,0.00,,OVC055,0.40,VWS V14.01,2013-03-31 14:04:00,
2013-03-31 10:09:00,56.7,54.4,29.92,SSE,149,1.0,5.0,92,0.00,,OVC055,0.40,VWS V14.01,2013-03-31 14:09:00,
2013-03-31 10:14:00,56.7,53.8,29.92,East,96,0.0,5.0,90,0.00,,OVC055,0.40,VWS V14.01,2013-03-31 14:14:00,
2013-03-31 10:19:00,56.8,53.9,29.92,NW,323,1.0,5.0,90,0.00,,OVC055,0.40,VWS V14.01,2013-03-31 14:19:00,
2013-03-31 10:24:00,56.9,54.0,29.92,NNW,339,0.0,5.0,90,0.00,,OVC055,0.40,VWS V14.01,2013-03-31 14:24:00,
2013-03-31 10:29:00,56.8,53.9,29.92,West,272,0.0,0.0,90,0.00,,OVC055,0.40,VWS V14.01,2013-03-31 14:29:00,
2013-03-31 10:30:00,56.9,54.0,29.92,West,272,0.0,5.0,90,0.00,,OVC055,0.40,VWS V14.01,2013-03-31 14:30:00,
2013-03-31 10:34:00,56.8,53.6,29.92,ESE,122,0.0,3.0,89,0.00,,OVC055,0.40,VWS V14.01,2013-03-31 14:34:00,
2013-03-31 10:39:00,56.8,53.9,29.92,SE,132,1.0,3.0,90,0.00,,OVC055,0.40,VWS V14.01,2013-03-31 14:39:00,
2013-03-31 10:44:00,56.9,53.7,29.92,SW,234,1.0,4.0,89,0.00,,OVC055,0.40,VWS V14.01,2013-03-31 14:44:00,
2013-03-31 10:49:00,57.3,53.2,29.92,SSW,193,3.0,6.0,86,0.00,,OVC055,0.40,VWS V14.01,2013-03-31 14:49:00,
2013-03-31 10:54:00,57.7,53.9,29.92,SW,217,2.0,6.0,87,0.00,,OVC055,0.40,VWS V14.01,2013-03-31 14:54:00,
2013-03-31 10:59:00,58.0,53.5,29.92,West,261,2.0,3.0,85,0.00,,OVC055,0.40,VWS V14.01,2013-03-31 14:59:00,
2013-03-31 11:00:00,58.0,53.5,29.92,West,261,3.0,7.0,85,0.00,,OVC055,0.40,VWS V14.01,2013-03-31 15:00:00,
2013-03-31 11:04:00,58.0,51.9,29.92,WNW,284,1.0,8.0,80,0.00,,OVC055,0.40,VWS V14.01,2013-03-31 15:04:00,
2013-03-31 11:09:00,58.6,53.1,29.92,WNW,289,0.0,8.0,82,0.00,,OVC055,0.40,VWS V14.01,2013-03-31 15:09:00,
2013-03-31 11:14:00,59.6,54.1,29.92,South,184,8.0,8.0,82,0.00,,OVC055,0.40,VWS V14.01,2013-03-31 15:14:00,
2013-03-31 11:19:00,60.1,53.2,29.92,WSW,240,0.0,8.0,78,0.00,,OVC055,0.40,VWS V14.01,2013-03-31 15:19:00,
2013-03-31 11:24:00,60.9,53.7,29.91,SSE,154,4.0,8.0,77,0.00,,OVC055,0.40,VWS V14.01,2013-03-31 15:24:00,
2013-03-31 11:29:00,61.5,53.5,29.91,SSW,199,5.0,8.0,75,0.00,,OVC055,0.40,VWS V14.01,2013-03-31 15:29:00,
2013-03-31 11:30:00,61.5,53.5,29.91,SSW,199,5.0,8.0,75,0.00,,OVC055,0.40,VWS V14.01,2013-03-31 15:30:00,
2013-03-31 11:34:00,61.5,53.2,29.92,SSE,149,3.0,6.0,74,0.00,,OVC055,0.40,VWS V14.01,2013-03-31 15:34:00,
2013-03-31 11:39:00,61.4,52.7,29.91,North,9,2.0,7.0,73,0.00,,OVC055,0.40,VWS V14.01,2013-03-31 15:39:00,
2013-03-31 11:44:00,61.6,53.2,29.91,SE,146,4.0,7.0,74,0.00,,OVC055,0.40,VWS V14.01,2013-03-31 15:44:00,
2013-03-31 11:49:00,62.1,53.3,29.91,South,183,5.0,7.0,73,0.00,,OVC055,0.40,VWS V14.01,2013-03-31 15:49:00,
2013-03-31 11:54:00,62.3,53.5,29.91,WNW,302,3.0,7.0,73,0.00,,OVC055,0.40,VWS V14.01,2013-03-31 15:54:00,
2013-03-31 11:59:00,62.3,52.4,29.90,ESE,111,1.0,3.0,70,0.00,,OVC055,0.40,VWS V14.01,2013-03-31 15:59:00,
2013-03-31 12:00:00,62.3,52.4,29.90,WSW,245,3.0,7.0,70,0.00,,OVC055,0.40,VWS V14.01,2013-03-31 16:00:00,
2013-03-31 12:04:00,62.4,52.1,29.90,SW,227,1.0,7.0,69,0.00,,OVC055,0.40,VWS V14.01,2013-03-31 16:04:00,
2013-03-31 12:09:00,62.7,52.4,29.91,SW,225,6.0,7.0,69,0.00,,OVC055,0.40,VWS V14.01,2013-03-31 16:09:00,
2013-03-31 12:14:00,62.5,51.4,29.91,ESE,110,3.0,10.0,67,0.00,,OVC055,0.40,VWS V14.01,2013-03-31 16:14:00,
2013-03-31 12:19:00,62.3,52.0,29.90,SSW,203,2.0,10.0,69,0.00,,OVC055,0.40,VWS V14.01,2013-03-31 16:19:00,
2013-03-31 12:24:00,62.5,52.2,29.91,WSW,238,2.0,10.0,69,0.00,,OVC055,0.40,VWS V14.01,2013-03-31 16:24:00,
2013-03-31 12:29:00,62.8,53.3,29.91,NNW,342,4.0,10.0,71,0.00,,OVC055,0.40,VWS V14.01,2013-03-31 16:29:00,
2013-03-31 12:30:00,62.8,53.3,29.91,NNW,342,4.0,10.0,71,0.00,,OVC055,0.40,VWS V14.01,2013-03-31 16:30:00,
2013-03-31 12:34:00,62.9,53.4,29.91,SSW,208,2.0,4.0,71,0.00,,OVC055,0.40,VWS V14.01,2013-03-31 16:34:00,
2013-03-31 12:39:00,63.4,54.2,29.91,WNW,290,3.0,4.0,72,0.00,,OVC055,0.40,VWS V14.01,2013-03-31 16:39:00,
2013-03-31 12:44:00,63.7,54.5,29.91,West,269,0.0,5.0,72,0.00,,OVC055,0.40,VWS V14.01,2013-03-31 16:44:00,
2013-03-31 12:49:00,63.8,54.6,29.91,SE,145,2.0,5.0,72,0.00,,OVC055,0.40,VWS V14.01,2013-03-31 16:49:00,
2013-03-31 12:54:00,63.4,54.2,29.89,South,186,3.0,5.0,72,0.00,,OVC055,0.40,VWS V14.01,2013-03-31 16:54:00,
2013-03-31 12:59:00,62.9,54.1,29.90,North,355,1.0,5.0,73,0.00,,OVC055,0.40,VWS V14.01,2013-03-31 16:59:00,
2013-03-31 13:00:00,62.9,54.1,29.90,North,355,1.0,5.0,73,0.00,,OVC055,0.40,VWS V14.01,2013-03-31 17:00:00,
2013-03-31 13:04:00,62.4,53.6,29.90,NW,308,2.0,4.0,73,0.00,,OVC055,0.40,VWS V14.01,2013-03-31 17:04:00,
2013-03-31 13:09:00,62.1,53.3,29.91,WSW,244,2.0,4.0,73,0.00,,OVC055,0.40,VWS V14.01,2013-03-31 17:09:00,
2013-03-31 13:14:00,62.2,53.8,29.90,NW,319,1.0,4.0,74,0.00,,OVC055,0.40,VWS V14.01,2013-03-31 17:14:00,
2013-03-31 13:19:00,62.4,52.5,29.90,SE,125,2.0,4.0,70,0.00,,OVC055,0.40,VWS V14.01,2013-03-31 17:19:00,
2013-03-31 13:24:00,62.9,53.4,29.89,ESE,117,0.0,4.0,71,0.00,,OVC055,0.40,VWS V14.01,2013-03-31 17:24:00,
2013-03-31 13:29:00,63.1,53.9,29.89,NNW,348,1.0,4.0,72,0.00,,OVC055,0.40,VWS V14.01,2013-03-31 17:29:00,
2013-03-31 13:30:00,63.1,53.9,29.89,NNW,348,1.0,4.0,72,0.00,,OVC055,0.40,VWS V14.01,2013-03-31 17:30:00,
2013-03-31 13:34:00,63.2,53.3,29.89,NNE,26,2.0,6.0,70,0.00,,OVC055,0.40,VWS V14.01,2013-03-31 17:34:00,
2013-03-31 13:39:00,63.1,52.8,29.89,NW,321,0.0,6.0,69,0.00,,OVC055,0.40,VWS V14.01,2013-03-31 17:39:00,
2013-03-31 13:44:00,62.9,53.0,29.89,SSE,167,0.0,6.0,70,0.00,,OVC055,0.40,VWS V14.01,2013-03-31 17:44:00,
2013-03-31 13:49:00,62.7,52.0,29.89,SSW,213,3.0,6.0,68,0.00,,OVC055,0.40,VWS V14.01,2013-03-31 17:49:00,
2013-03-31 13:54:00,62.7,52.0,29.89,SW,232,0.0,6.0,68,0.00,,OVC055,0.40,VWS V14.01,2013-03-31 17:54:00,
2013-03-31 13:59:00,62.9,52.2,29.89,WNW,290,2.0,6.0,68,0.00,,OVC055,0.40,VWS V14.01,2013-03-31 17:59:00,
2013-03-31 14:00:00,62.9,52.2,29.89,WNW,291,1.0,6.0,68,0.00,,OVC055,0.40,VWS V14.01,2013-03-31 18:00:00,
2013-03-31 14:04:00,63.1,53.6,29.88,WNW,291,0.0,2.0,71,0.00,,OVC055,0.40,VWS V14.01,2013-03-31 18:04:00,
2013-03-31 14:09:00,63.4,53.1,29.88,WNW,286,3.0,4.0,69,0.00,,OVC055,0.40,VWS V14.01,2013-03-31 18:09:00,
2013-03-31 14:14:00,63.4,51.0,29.88,SSW,212,0.0,7.0,64,0.00,,OVC055,0.40,VWS V14.01,2013-03-31 18:14:00,
2013-03-31 14:19:00,63.3,50.1,29.88,SE,146,2.0,7.0,62,0.00,,OVC055,0.40,VWS V14.01,2013-03-31 18:19:00,
2013-03-31 14:24:00,63.2,50.4,29.87,WNW,291,1.0,7.0,63,0.00,,OVC055,0.40,VWS V14.01,2013-03-31 18:24:00,
2013-03-31 14:29:00,63.3,49.6,29.87,SW,228,3.0,7.0,61,0.00,,OVC055,0.40,VWS V14.01,2013-03-31 18:29:00,
2013-03-31 14:30:00,63.3,49.6,29.87,SW,228,2.0,7.0,61,0.00,,OVC055,0.40,VWS V14.01,2013-03-31 18:30:00,
2013-03-31 14:34:00,63.5,49.8,29.87,SW,236,1.0,6.0,61,0.00,,OVC055,0.40,VWS V14.01,2013-03-31 18:34:00,
2013-03-31 14:39:00,63.6,50.8,29.87,West,275,3.0,7.0,63,0.00,,OVC055,0.40,VWS V14.01,2013-03-31 18:39:00,
2013-03-31 14:44:00,63.8,50.5,29.87,West,260,2.0,7.0,62,0.00,,OVC055,0.40,VWS V14.01,2013-03-31 18:44:00,
2013-03-31 14:49:00,64.1,51.3,29.88,ENE,60,2.0,7.0,63,0.00,,OVC055,0.40,VWS V14.01,2013-03-31 18:49:00,
2013-03-31 14:54:00,64.2,51.8,29.88,NE,53,2.0,7.0,64,0.00,,OVC055,0.40,VWS V14.01,2013-03-31 18:54:00,
2013-03-31 14:59:00,64.1,50.8,29.87,East,86,0.0,7.0,62,0.00,,OVC055,0.40,VWS V14.01,2013-03-31 18:59:00,
2013-03-31 15:00:00,64.1,50.8,29.87,East,86,0.0,7.0,62,0.00,,OVC055,0.40,VWS V14.01,2013-03-31 19:00:00,
2013-03-31 15:04:00,63.9,52.3,29.87,East,79,0.0,4.0,66,0.00,,OVC055,0.40,VWS V14.01,2013-03-31 19:04:00,
2013-03-31 15:09:00,63.4,53.1,29.87,WNW,296,0.0,5.0,69,0.00,,OVC055,0.40,VWS V14.01,2013-03-31 19:09:00,
2013-03-31 15:14:00,62.7,53.2,29.87,North,5,1.0,6.0,71,0.00,,OVC055,0.40,VWS V14.01,2013-03-31 19:14:00,
2013-03-31 15:19:00,62.4,54.4,29.87,North,5,1.0,6.0,75,0.00,,OVC055,0.40,VWS V14.01,2013-03-31 19:19:00,
2013-03-31 15:24:00,62.5,51.8,29.87,SE,124,1.0,6.0,68,0.00,,OVC055,0.40,VWS V14.01,2013-03-31 19:24:00,
2013-03-31 15:29:00,62.7,51.6,29.86,SSE,161,1.0,6.0,67,0.00,,OVC055,0.40,VWS V14.01,2013-03-31 19:29:00,
2013-03-31 15:30:00,62.7,51.6,29.86,SSE,161,1.0,6.0,67,0.00,,OVC055,0.40,VWS V14.01,2013-03-31 19:30:00,
2013-03-31 15:34:00,62.9,51.8,29.86,SSE,159,4.0,9.0,67,0.00,,OVC055,0.40,VWS V14.01,2013-03-31 19:34:00,
2013-03-31 15:39:00,63.0,52.3,29.86,SE,135,2.0,9.0,68,0.00,,OVC055,0.40,VWS V14.01,2013-03-31 19:39:00,
2013-03-31 15:44:00,62.9,51.8,29.86,NNE,26,5.0,9.0,67,0.00,,OVC055,0.40,VWS V14.01,2013-03-31 19:44:00,
2013-03-31 15:49:00,62.8,52.5,29.86,West,281,0.0,9.0,69,0.00,,OVC055,0.40,VWS V14.01,2013-03-31 19:49:00,
2013-03-31 15:54:00,62.6,52.7,29.86,SSW,195,6.0,9.0,70,0.00,,OVC055,0.40,VWS V14.01,2013-03-31 19:54:00,
2013-03-31 15:59:00,62.2,53.5,29.86,West,274,1.0,9.0,73,0.00,,OVC055,0.40,VWS V14.01,2013-03-31 19:59:00,
2013-03-31 16:00:00,62.2,53.5,29.86,West,274,1.0,9.0,73,0.00,,OVC055,0.40,VWS V14.01,2013-03-31 20:00:00,
2013-03-31 16:04:00,61.6,54.7,29.86,SW,220,0.0,5.0,78,0.01,,OVC055,0.41,VWS V14.01,2013-03-31 20:04:00,
2013-03-31 16:09:00,60.5,55.0,29.87,NNW,347,0.0,5.0,82,0.02,,OVC055,0.42,VWS V14.01,2013-03-31 20:09:00,
2013-03-31 16:14:00,59.3,54.8,29.88,North,360,2.0,5.0,85,0.03,,OVC055,0.43,VWS V14.01,2013-03-31 20:14:00,
2013-03-31 16:19:00,58.6,54.4,29.87,WSW,245,1.0,5.0,86,0.04,,OVC055,0.44,VWS V14.01,2013-03-31 20:19:00,
2013-03-31 16:24:00,58.0,54.5,29.87,NNE,21,2.0,5.0,88,0.04,,OVC055,0.44,VWS V14.01,2013-03-31 20:24:00,
2013-03-31 16:29:00,57.6,54.7,29.87,ENE,65,2.0,5.0,90,0.05,,OVC055,0.45,VWS V14.01,2013-03-31 20:29:00,
2013-03-31 16:30:00,57.6,54.7,29.87,ENE,65,2.0,5.0,90,0.05,,OVC055,0.45,VWS V14.01,2013-03-31 20:30:00,
2013-03-31 16:34:00,57.3,54.7,29.87,NE,37,0.0,4.0,91,0.05,,OVC055,0.45,VWS V14.01,2013-03-31 20:34:00,
2013-03-31 16:39:00,57.4,54.8,29.87,North,355,2.0,4.0,91,0.05,,OVC055,0.45,VWS V14.01,2013-03-31 20:39:00,
2013-03-31 16:44:00,57.5,54.9,29.87,ENE,76,1.0,4.0,91,0.05,,OVC055,0.45,VWS V14.01,2013-03-31 20:44:00,
2013-03-31 16:49:00,57.6,55.0,29.86,ESE,108,0.0,4.0,91,0.05,,OVC055,0.45,VWS V14.01,2013-03-31 20:49:00,
2013-03-31 16:54:00,57.7,54.8,29.86,ENE,71,0.0,6.0,90,0.05,,OVC055,0.45,VWS V14.01,2013-03-31 20:54:00,
2013-03-31 16:59:00,57.7,54.8,29.86,SE,134,1.0,6.0,90,0.05,,OVC055,0.45,VWS V14.01,2013-03-31 20:59:00,
2013-03-31 17:00:00,57.7,54.8,29.86,SE,134,1.0,6.0,90,0.05,,OVC055,0.45,VWS V14.01,2013-03-31 21:00:00,
2013-03-31 17:04:00,57.8,55.2,29.86,SSE,168,3.0,3.0,91,0.05,,OVC055,0.45,VWS V14.01,2013-03-31 21:04:00,
2013-03-31 17:09:00,57.7,54.2,29.86,West,276,1.0,7.0,88,0.05,,OVC055,0.45,VWS V14.01,2013-03-31 21:09:00,
2013-03-31 17:14:00,57.5,54.6,29.86,West,266,0.0,7.0,90,0.05,,OVC055,0.45,VWS V14.01,2013-03-31 21:14:00,
2013-03-31 17:19:00,57.4,54.5,29.86,West,266,0.0,7.0,90,0.05,,OVC055,0.45,VWS V14.01,2013-03-31 21:19:00,
2013-03-31 17:24:00,57.5,54.6,29.86,West,266,1.0,7.0,90,0.05,,OVC055,0.45,VWS V14.01,2013-03-31 21:24:00,
2013-03-31 17:29:00,57.6,55.0,29.86,West,266,0.0,7.0,91,0.05,,OVC055,0.45,VWS V14.01,2013-03-31 21:29:00,
2013-03-31 17:30:00,57.6,55.0,29.86,West,266,0.0,7.0,91,0.05,,OVC055,0.45,VWS V14.01,2013-03-31 21:30:00,
2013-03-31 17:34:00,57.5,54.6,29.85,South,184,3.0,4.0,90,0.00,,OVC055,0.45,VWS V14.01,2013-03-31 21:34:00,
2013-03-31 17:39:00,57.3,54.4,29.85,South,174,0.0,4.0,90,0.00,,OVC055,0.45,VWS V14.01,2013-03-31 21:39:00,
2013-03-31 17:44:00,57.2,54.6,29.85,South,176,1.0,4.0,91,0.00,,OVC055,0.45,VWS V14.01,2013-03-31 21:44:00,
2013-03-31 17:49:00,57.2,54.9,29.85,SW,222,1.0,4.0,92,0.00,,OVC055,0.45,VWS V14.01,2013-03-31 21:49:00,
2013-03-31 17:54:00,57.4,54.8,29.85,SW,221,0.0,4.0,91,0.00,,OVC055,0.45,VWS V14.01,2013-03-31 21:54:00,
2013-03-31 17:59:00,57.5,54.9,29.85,SW,216,0.0,4.0,91,0.00,,OVC055,0.45,VWS V14.01,2013-03-31 21:59:00,
2013-03-31 18:00:00,57.5,54.9,29.85,SW,216,0.0,4.0,91,0.00,,OVC055,0.45,VWS V14.01,2013-03-31 22:00:00,
2013-03-31 18:04:00,57.6,54.7,29.85,WSW,252,0.0,2.0,90,0.00,,OVC055,0.45,VWS V14.01,2013-03-31 22:04:00,
2013-03-31 18:09:00,57.6,54.4,29.86,SSE,166,0.0,3.0,89,0.00,,OVC055,0.45,VWS V14.01,2013-03-31 22:09:00,
2013-03-31 18:14:00,57.6,54.4,29.86,SSE,166,0.0,3.0,89,0.00,,OVC055,0.45,VWS V14.01,2013-03-31 22:14:00,
2013-03-31 18:19:00,57.5,54.6,29.87,SSW,211,2.0,6.0,90,0.00,,OVC055,0.45,VWS V14.01,2013-03-31 22:19:00,
2013-03-31 18:24:00,57.3,54.4,29.87,South,183,1.0,6.0,90,0.00,,OVC055,0.45,VWS V14.01,2013-03-31 22:24:00,
2013-03-31 18:29:00,57.2,54.3,29.86,WSW,239,0.0,6.0,90,0.00,,OVC055,0.45,VWS V14.01,2013-03-31 22:29:00,
2013-03-31 18:30:00,57.2,54.3,29.86,WSW,239,0.0,6.0,90,0.00,,OVC055,0.45,VWS V14.01,2013-03-31 22:30:00,
2013-03-31 18:34:00,57.1,54.2,29.86,SSE,158,1.0,4.0,90,0.00,,OVC055,0.45,VWS V14.01,2013-03-31 22:34:00,
2013-03-31 18:39:00,57.1,54.5,29.86,ESE,113,0.0,4.0,91,0.00,,OVC055,0.45,VWS V14.01,2013-03-31 22:39:00,
2013-03-31 18:44:00,57.1,54.2,29.86,ESE,113,1.0,4.0,90,0.00,,OVC055,0.45,VWS V14.01,2013-03-31 22:44:00,
2013-03-31 18:49:00,57.1,54.2,29.86,ESE,102,1.0,4.0,90,0.00,,OVC055,0.45,VWS V14.01,2013-03-31 22:49:00,
2013-03-31 18:54:00,57.0,54.1,29.86,ESE,102,0.0,4.0,90,0.00,,OVC055,0.45,VWS V14.01,2013-03-31 22:54:00,
2013-03-31 18:59:00,56.9,54.0,29.87,ESE,102,1.0,4.0,90,0.00,,OVC055,0.45,VWS V14.01,2013-03-31 22:59:00,
2013-03-31 19:00:00,56.9,54.0,29.87,ESE,102,0.0,4.0,90,0.00,,OVC055,0.45,VWS V14.01,2013-03-31 23:00:00,
2013-03-31 19:04:00,56.8,53.9,29.87,SE,135,1.0,2.0,90,0.00,,OVC055,0.45,VWS V14.01,2013-03-31 23:04:00,
2013-03-31 19:09:00,56.6,54.0,29.86,SE,135,0.0,2.0,91,0.00,,OVC055,0.45,VWS V14.01,2013-03-31 23:09:00,
2013-03-31 19:14:00,56.6,54.0,29.86,SE,135,1.0,2.0,91,0.00,,OVC055,0.45,VWS V14.01,2013-03-31 23:14:00,
2013-03-31 19:19:00,56.4,53.8,29.86,SE,135,0.0,2.0,91,0.00,,OVC055,0.45,VWS V14.01,2013-03-31 23:19:00,
2013-03-31 19:24:00,56.3,54.0,29.87,SSW,211,0.0,4.0,92,0.00,,OVC055,0.45,VWS V14.01,2013-03-31 23:24:00,
2013-03-31 19:29:00,56.1,53.8,29.87,South,173,2.0,6.0,92,0.00,,OVC055,0.45,VWS V14.01,2013-03-31 23:29:00,
2013-03-31 19:30:00,56.1,53.8,29.87,South,173,0.0,6.0,92,0.00,,OVC055,0.45,VWS V14.01,2013-03-31 23:30:00,
2013-03-31 19:34:00,56.0,53.7,29.87,West,261,0.0,6.0,92,0.00,,OVC055,0.45,VWS V14.01,2013-03-31 23:34:00,
2013-03-31 19:39:00,55.9,53.6,29.87,West,261,0.0,6.0,92,0.00,,OVC055,0.45,VWS V14.01,2013-03-31 23:39:00,
2013-03-31 19:44:00,55.8,53.5,29.87,WSW,256,0.0,6.0,92,0.00,,OVC055,0.45,VWS V14.01,2013-03-31 23:44:00,
2013-03-31 19:49:00,55.7,53.4,29.87,WSW,256,1.0,6.0,92,0.00,,OVC055,0.45,VWS V14.01,2013-03-31 23:49:00,
2013-03-31 19:54:00,55.7,53.7,29.86,WSW,245,0.0,6.0,93,0.00,,OVC055,0.45,VWS V14.01,2013-03-31 23:54:00,
2013-03-31 19:59:00,55.6,53.6,29.87,SW,227,0.0,6.0,93,0.00,,OVC055,0.45,VWS V14.01,2013-03-31 23:59:00,
2013-03-31 20:00:00,55.6,53.6,29.87,SW,227,0.0,6.0,93,0.00,,OVC055,0.45,VWS V14.01,2013-04-01 00:00:00,
2013-03-31 20:04:00,55.5,53.5,29.87,SW,227,0.0,2.0,93,0.00,,OVC055,0.45,VWS V14.01,2013-04-01 00:04:00,
2013-03-31 20:09:00,55.5,53.5,29.87,SW,227,0.0,2.0,93,0.00,,OVC055,0.45,VWS V14.01,2013-04-01 00:09:00,
2013-03-31 20:14:00,55.5,53.5,29.87,SW,227,0.0,2.0,93,0.00,,OVC055,0.45,VWS V14.01,2013-04-01 00:14:00,
2013-03-31 20:19:00,55.4,53.7,29.86,SW,227,0.0,2.0,94,0.00,,OVC055,0.45,VWS V14.01,2013-04-01 00:19:00,
2013-03-31 20:24:00,55.3,53.6,29.86,SW,227,0.0,2.0,94,0.00,,OVC055,0.45,VWS V14.01,2013-04-01 00:24:00,
2013-03-31 20:29:00,55.2,53.5,29.86,SW,227,0.0,2.0,94,0.00,,OVC055,0.45,VWS V14.01,2013-04-01 00:29:00,
2013-03-31 20:30:00,55.1,53.4,29.86,SW,227,1.0,2.0,94,0.00,,OVC055,0.45,VWS V14.01,2013-04-01 00:30:00,
2013-03-31 20:34:00,55.0,53.3,29.86,SW,227,0.0,1.0,94,0.00,,OVC055,0.45,VWS V14.01,2013-04-01 00:34:00,
2013-03-31 20:39:00,54.9,53.2,29.86,SW,227,0.0,1.0,94,0.00,,OVC055,0.45,VWS V14.01,2013-04-01 00:39:00,
2013-03-31 20:44:00,54.8,53.4,29.86,SW,227,0.0,2.0,95,0.00,,OVC055,0.45,VWS V14.01,2013-04-01 00:44:00,
2013-03-31 20:49:00,54.7,53.3,29.86,SW,227,0.0,2.0,95,0.00,,OVC055,0.45,VWS V14.01,2013-04-01 00:49:00,
2013-03-31 20:54:00,54.6,53.2,29.86,SW,227,0.0,2.0,95,0.00,,OVC055,0.45,VWS V14.01,2013-04-01 00:54:00,
2013-03-31 20:59:00,54.6,53.2,29.86,SW,227,0.0,2.0,95,0.00,,OVC055,0.45,VWS V14.01,2013-04-01 00:59:00,
2013-03-31 21:00:00,54.6,53.2,29.86,SW,227,1.0,2.0,95,0.00,,OVC055,0.45,VWS V14.01,2013-04-01 01:00:00,
2013-03-31 21:04:00,54.6,53.5,29.86,SW,227,0.0,2.0,96,0.00,,OVC055,0.45,VWS V14.01,2013-04-01 01:04:00,
2013-03-31 21:09:00,54.6,53.5,29.86,SW,227,0.0,2.0,96,0.00,,OVC055,0.45,VWS V14.01,2013-04-01 01:09:00,
2013-03-31 21:14:00,54.6,53.5,29.86,SW,227,0.0,2.0,96,0.00,,OVC055,0.45,VWS V14.01,2013-04-01 01:14:00,
2013-03-31 21:19:00,54.5,53.4,29.86,SW,227,0.0,2.0,96,0.00,,OVC055,0.45,VWS V14.01,2013-04-01 01:19:00,
2013-03-31 21:24:00,54.5,53.4,29.86,SW,227,0.0,2.0,96,0.00,,OVC055,0.45,VWS V14.01,2013-04-01 01:24:00,
2013-03-31 21:29:00,54.5,53.4,29.86,SW,227,0.0,2.0,96,0.00,,OVC055,0.45,VWS V14.01,2013-04-01 01:29:00,
2013-03-31 21:30:00,54.6,53.5,29.86,SW,227,0.0,2.0,96,0.00,,OVC055,0.45,VWS V14.01,2013-04-01 01:30:00,
2013-03-31 21:34:00,54.5,53.4,29.86,SW,227,0.0,0.0,96,0.00,,OVC055,0.45,VWS V14.01,2013-04-01 01:34:00,
2013-03-31 21:39:00,54.5,53.4,29.87,SW,227,0.0,0.0,96,0.00,,OVC055,0.45,VWS V14.01,2013-04-01 01:39:00,
2013-03-31 21:44:00,54.4,53.3,29.87,SW,227,0.0,0.0,96,0.00,,OVC055,0.45,VWS V14.01,2013-04-01 01:44:00,
2013-03-31 21:49:00,54.3,53.2,29.87,SW,227,0.0,0.0,96,0.00,,OVC055,0.45,VWS V14.01,2013-04-01 01:49:00,
2013-03-31 21:54:00,54.3,53.5,29.87,SW,227,0.0,0.0,97,0.00,,OVC055,0.45,VWS V14.01,2013-04-01 01:54:00,
2013-03-31 21:59:00,54.3,53.5,29.87,SW,227,0.0,0.0,97,0.00,,OVC055,0.45,VWS V14.01,2013-04-01 01:59:00,
2013-03-31 22:00:00,54.3,53.5,29.87,SW,227,0.0,0.0,97,0.00,,OVC055,0.45,VWS V14.01,2013-04-01 02:00:00,
2013-03-31 22:04:00,54.3,53.5,29.87,SW,227,0.0,0.0,97,0.00,,OVC055,0.45,VWS V14.01,2013-04-01 02:04:00,
2013-03-31 22:09:00,54.2,53.4,29.87,SW,227,0.0,0.0,97,0.00,,OVC055,0.45,VWS V14.01,2013-04-01 02:09:00,
2013-03-31 22:14:00,54.3,53.5,29.87,SW,227,0.0,0.0,97,0.00,,OVC055,0.45,VWS V14.01,2013-04-01 02:14:00,
2013-03-31 22:19:00,54.3,53.5,29.87,SW,227,0.0,1.0,97,0.00,,OVC055,0.45,VWS V14.01,2013-04-01 02:19:00,
2013-03-31 22:24:00,54.2,53.4,29.87,SW,227,0.0,1.0,97,0.00,,OVC055,0.45,VWS V14.01,2013-04-01 02:24:00,
2013-03-31 22:29:00,54.2,53.4,29.87,SW,227,0.0,1.0,97,0.00,,OVC055,0.45,VWS V14.01,2013-04-01 02:29:00,
2013-03-31 22:30:00,54.2,53.4,29.87,SW,227,0.0,1.0,97,0.00,,OVC055,0.45,VWS V14.01,2013-04-01 02:30:00,
2013-03-31 22:34:00,54.2,53.4,29.87,SW,227,0.0,2.0,97,0.00,,OVC055,0.45,VWS V14.01,2013-04-01 02:34:00,
2013-03-31 22:39:00,54.2,53.4,29.87,SW,227,1.0,2.0,97,0.00,,OVC055,0.45,VWS V14.01,2013-04-01 02:39:00,
2013-03-31 22:44:00,54.2,53.4,29.87,SW,227,0.0,2.0,97,0.00,,OVC055,0.45,VWS V14.01,2013-04-01 02:44:00,
2013-03-31 22:49:00,54.1,53.0,29.87,SW,227,0.0,2.0,96,0.00,,OVC055,0.45,VWS V14.01,2013-04-01 02:49:00,
2013-03-31 22:54:00,54.1,53.0,29.87,SW,227,0.0,2.0,96,0.00,,OVC055,0.45,VWS V14.01,2013-04-01 02:54:00,
2013-03-31 22:59:00,54.1,53.0,29.86,SW,227,0.0,2.0,96,0.00,,OVC055,0.45,VWS V14.01,2013-04-01 02:59:00,
2013-03-31 23:00:00,54.1,53.0,29.86,SW,227,0.0,2.0,96,0.00,,OVC055,0.45,VWS V14.01,2013-04-01 03:00:00,
2013-03-31 23:04:00,54.0,52.9,29.87,SW,227,0.0,0.0,96,0.00,,OVC055,0.45,VWS V14.01,2013-04-01 03:04:00,
2013-03-31 23:09:00,54.0,52.9,29.87,SW,227,0.0,0.0,96,0.00,,OVC055,0.45,VWS V14.01,2013-04-01 03:09:00,
2013-03-31 23:14:00,53.9,52.8,29.87,SW,227,0.0,1.0,96,0.00,,OVC055,0.45,VWS V14.01,2013-04-01 03:14:00,
2013-03-31 23:19:00,53.9,52.8,29.87,SW,220,0.0,3.0,96,0.00,,OVC055,0.45,VWS V14.01,2013-04-01 03:19:00,
2013-03-31 23:24:00,53.9,52.8,29.86,SW,220,0.0,3.0,96,0.00,,OVC055,0.45,VWS V14.01,2013-04-01 03:24:00,
2013-03-31 23:29:00,53.8,52.7,29.86,SW,220,0.0,3.0,96,0.00,,OVC055,0.45,VWS V14.01,2013-04-01 03:29:00,
2013-03-31 23:30:00,53.8,52.7,29.86,SW,220,0.0,3.0,96,0.00,,OVC055,0.45,VWS V14.01,2013-04-01 03:30:00,
2013-03-31 23:34:00,53.8,53.0,29.86,SW,220,0.0,1.0,97,0.00,,OVC055,0.45,VWS V14.01,2013-04-01 03:34:00,
2013-03-31 23:39:00,53.7,52.9,29.86,SW,220,0.0,1.0,97,0.00,,OVC055,0.45,VWS V14.01,2013-04-01 03:39:00,
2013-03-31 23:44:00,53.7,52.9,29.86,SW,220,0.0,1.0,97,0.00,,OVC055,0.45,VWS V14.01,2013-04-01 03:44:00,
2013-03-31 23:49:00,53.6,52.8,29.87,SW,221,0.0,1.0,97,0.00,,OVC055,0.45,VWS V14.01,2013-04-01 03:49:00,
2013-03-31 23:54:00,53.7,52.9,29.87,SW,224,0.0,2.0,97,0.00,,OVC055,0.45,VWS V14.01,2013-04-01 03:54:00,
2013-03-31 23:59:00,53.7,52.9,29.86,SW,225,1.0,2.0,97,0.00,,OVC055,0.45,VWS V14.01,2013-04-01 03:59:00,